This is the latest recevied weather packets stored in our database for station/object DL1AIE-13. If no packets are shown the sender has not sent any weather packets the latest 10 day(s).
| Time | Temp. | Humidity | Pressure | Rain* | Wind** | Luminosity | Snow |
|---|---|---|---|---|---|---|---|
| 1777824444 | 22.78° C | 41% | 1012.4 hPa | 0 mm | - | - | - |
| 1777823840 | 23.33° C | 40% | 1012.5 hPa | 0 mm | - | - | - |
| 1777823237 | 23.33° C | 40% | 1012.5 hPa | 0 mm | - | - | - |
| 1777822653 | 22.78° C | 40% | 1012.6 hPa | 0 mm | - | - | - |
| 1777822049 | 23.33° C | 40% | 1012.6 hPa | 0 mm | - | - | - |
| 1777821445 | 23.33° C | 39% | 1012.7 hPa | 0 mm | - | - | - |
| 1777820841 | 23.89° C | 39% | 1012.8 hPa | 0 mm | - | - | - |
| 1777820238 | 22.78° C | 40% | 1012.7 hPa | 0 mm | - | - | - |
| 1777819653 | 22.78° C | 41% | 1012.9 hPa | 0 mm | - | - | - |
| 1777819049 | 22.78° C | 40% | 1013 hPa | 0 mm | - | - | - |
| 1777818445 | 23.33° C | 42% | 1013 hPa | 0 mm | - | - | - |
| 1777817840 | 23.33° C | 39% | 1012.9 hPa | 0 mm | - | - | - |
| 1777817237 | 23.33° C | 39% | 1013.3 hPa | 0 mm | - | - | - |
| 1777816653 | 23.33° C | 39% | 1013.2 hPa | 0 mm | - | - | - |
| 1777816049 | 23.33° C | 39% | 1013.3 hPa | 0 mm | - | - | - |
| 1777815446 | 23.33° C | 38% | 1013.3 hPa | 0 mm | - | - | - |
| 1777814841 | 23.33° C | 37% | 1013.5 hPa | 0 mm | - | - | - |
| 1777814238 | 23.33° C | 36% | 1013.5 hPa | 0 mm | - | - | - |
| 1777813655 | 23.33° C | 36% | 1013.7 hPa | 0 mm | - | - | - |
| 1777813054 | 23.89° C | 35% | 1013.7 hPa | 0 mm | - | - | - |
| 1777812447 | 23.89° C | 35% | 1013.9 hPa | 0 mm | - | - | - |
| 1777811843 | 23.33° C | 36% | 1014 hPa | 0 mm | - | - | - |
| 1777811240 | 23.33° C | 36% | 1014 hPa | 0 mm | - | - | - |
| 1777810636 | 23.33° C | 37% | 1014 hPa | 0 mm | - | - | - |
| 1777810053 | 23.89° C | 36% | 1014.1 hPa | 0 mm | - | - | - |
* Rain latest hour (hover to see other rain measurements)
** Current wind speed in m/s (hover to see current wind gust speed)